haerbin , China , ASIA

  • Monday
    July 24

      Sunny

      57 °F

      Northwest

       

  • Tuesday
    July 25

    Sunny  Sunny

    82 °F  61 °F

    Northwest  Northwest

    3~4L    

  • Wednesday
    July 26

    Sunny  Cloudy

    82 °F  66 °F

    South  South

        

  • Thursday
    July 27

    Light rain  Cloudy

    79 °F  63 °F

    West  West

    3~4L    

  • Friday
    July 28

    Cloudy  Sunny

    82 °F  63 °F

    North  Northwest

        

  • Saturday
    July 29

    Sunny  Sunny

    86 °F  68 °F

    North  North

        

  • Sunday
    July 30

    Cloudy  Cloudy

    88 °F  68 °F

    North  North

        

Date   Weather Temperature Humidity Total_rain Visibility Wind
23:00 Sunny 64°F 66.4% 0mm 999.9km Northwest  2.8m/s
02:00 Sunny 61°F 68.2% 0mm 999.9km Northwest  3.6m/s
05:00 Sunny 58°F 69.9% 0mm 999.9km Northwest  2.2m/s
08:00 Sunny 71°F 64.5% 0mm 999.9km Northwest  2.4m/s
11:00 Sunny 80°F 57.4% 0mm 999.9km Northwest  4.8m/s
14:00 Sunny 81°F 56.6% 0mm 999.9km Northwest  4.2m/s
17:00 Sunny 82°F 61.6% 0mm 999.9km Northwest  1.8m/s
20:00 Sunny 70°F 53.7% 0mm 999.9km Southeast  1.3m/s
23:00 Sunny 66°F 72.4% 0mm 999.9km Southeast  2.0m/s
02:00 Sunny 62°F 74.2% 0mm 999.9km Southeast  1.7m/s
05:00 Sunny 61°F 77% 0mm 999.9km Southeast  1.7m/s
08:00 Sunny 73°F 71.7% 0mm 999.9km Southeast  1.9m/s
11:00 Sunny 80°F 67.3% 0mm 999.9km Southeast  2.9m/s
14:00 Sunny 82°F 66.7% 0mm 999.9km Northeast  1.2m/s
17:00 Sunny 78°F 70.1% 0mm 999.9km Northeast  3.1m/s
20:00 Sunny 75°F 63.1% 0mm 999.9km Northeast  3.3m/s
23:00 Cloudy 69°F 85.3% 0mm 999.9km Southeast  3.1m/s
02:00 Cloudy 67°F 89.2% 0mm 999.9km Southeast  3.2m/s
05:00 Cloudy 67°F 87.7% 0mm 999.9km Southeast  2.5m/s
08:00 Cloudy 70°F 83% 0mm 999.9km Southeast  2.9m/s
11:00 Cloudy 77°F 78.2% 0mm 999.9km Southeast  3.5m/s
14:00 Light rain 78°F 76.1% 0.2mm 999.9km Southwest  3.4m/s
17:00 Light rain 75°F 72.4% 0.2mm 999.9km Southeast  1.7m/s
20:00 Light rain 72°F 69.5% 2.6mm 999.9km Southwest  3.1m/s
23:00 Cloudy 64°F 95.5% 0mm 999.9km Southwest  2.7m/s
02:00 Cloudy 63°F 96.2% 0mm 999.9km Southwest  1.3m/s
05:00 Cloudy 63°F 98% 0mm 999.9km Northwest  1.3m/s
08:00 Cloudy 69°F 91.2% 0mm 999.9km Northwest  2.4m/s
11:00 Cloudy 79°F 73.3% 0mm 999.9km Northwest  3.8m/s
14:00 Cloudy 82°F 70% 0mm 999.9km Northwest  4.6m/s
17:00 Cloudy 79°F 72.5% 0mm 999.9km Northeast  3.6m/s
20:00 Cloudy 71°F 63.8% 0mm 999.9km Northeast  1.7m/s
23:00 Sunny 65°F 78% 0mm 999.9km Northwest  1.0m/s
02:00 Sunny 64°F 84.3% 0mm 999.9km Northwest  1.3m/s
05:00 Sunny 63°F 81.4% 0mm 999.9km Northwest  0.6m/s
08:00 Sunny 76°F 70.3% 0mm 999.9km Northeast  0.8m/s
11:00 Sunny 86°F 57.2% 0mm 999.9km Northeast  1.1m/s
14:00 Sunny 84°F 59.3% 0mm 999.9km Northeast  1.8m/s
17:00 Sunny 80°F 59.4% 0mm 999.9km Southeast  1.9m/s
20:00 Sunny 77°F 52.1% 0mm 999.9km Southeast  2.5m/s
23:00 Sunny 74°F 77.6% 0mm 999.9km Southeast  2.5m/s
02:00 Sunny 71°F 88.9% 0mm 999.9km Southeast  2.3m/s
05:00 Sunny 68°F 87.6% 0mm 999.9km Southeast  2.2m/s
08:00 Sunny 78°F 87.1% 0mm 999.9km Southeast  2.5m/s
11:00 Cloudy 87°F 66.7% 0mm 999.9km Southeast  3.8m/s
14:00 Cloudy 85°F 69.2% 0mm 999.9km Southeast  4.6m/s
17:00 Cloudy 81°F 66.7% 0mm 999.9km Southeast  4.1m/s
20:00 Cloudy 78°F 64.1% 0mm 999.9km Southeast  4.8m/s
23:00 Cloudy 70°F 95.8% 0mm 999.9km Southeast  3.9m/s
02:00 Cloudy 68°F 97.5% 0mm 999.9km Southwest  3.8m/s
05:00 Cloudy 68°F 97.8% 0mm 999.9km Southwest  4.0m/s